Location: Newark
(7.0858°N, 171.3717°E)
Time: 08:19:46
(UTC+00:00)

S-56A Canister/Altair - Pass Details

Date: 29 November 2020
Orbit: 633 x 2499 km, 38.9° (Epoch: 27 January)

Event Time Altitude Azimuth Distance (km) Brightness Sun altitude
Rises 07:19:56 0° 261° (W) 6,075 13.8 -15.8°
Reaches altitude 10° 07:25:13 10° 273° (W) 4,893 12.7 -17.0°
Maximum altitude 07:35:25 25° 322° (NW) 3,277 10.9 -19.4°
Drops below altitude 10° 07:43:25 10° 15° (NNE) 3,749 10.7 -21.3°
Enters shadow 07:43:57 - 17° (NNE) 3,842 10.7 -21.4°
Sets 07:46:52 0° 28° (NNE) 4,436 - -22.1°
